Theta_e
298 297 296 295 294 293 293 293 292 291 291 290 289 289 288 286 285 285 286 285 284 283 283 284 284 284 285 284 284 284 283 284 285 285 284 284 285 286 287 288 289 290 290
298 296 295 294 293 293 292 292 291 291 290 289 289 288 287 286 285 285 285 284 284 282 282 283 284 285 285 283 283 283 283 283 282 281 281 282 283 284 285 285 288 289 288
297 295 294 293 292 292 292 291 290 290 289 289 288 287 287 286 285 285 285 284 283 281 282 283 283 284 283 282 284 282 281 281 280 280 280 280 281 282 283 284 285 286 288
296 294 293 292 292 291 291 290 289 289 288 288 287 287 287 286 284 285 284 283 282 281 281 282 282 282 281 283 282 282 281 279 279 279 280 280 280 281 281 282 284 285 286
294 292 292 291 291 290 290 289 288 288 287 287 287 286 286 284 284 284 283 282 282 280 280 280 280 280 281 281 281 280 280 279 278 279 280 279 279 280 279 281 280 282 284
293 292 291 290 290 289 288 288 287 287 287 286 286 285 285 284 284 283 282 282 281 279 279 279 279 279 279 280 280 279 279 278 278 279 279 279 279 279 279 280 281 282 284
292 291 290 290 289 288 287 287 287 286 286 286 285 284 284 283 283 282 282 281 279 279 278 278 278 278 278 279 278 278 278 278 279 279 279 278 279 279 279 280 281 282 283
291 290 289 289 288 287 287 286 286 285 285 285 284 284 283 282 282 281 281 279 278 278 278 278 277 277 277 277 278 279 278 278 278 278 278 278 278 279 279 280 281 282 282
290 289 288 288 287 286 286 285 285 284 284 284 284 283 282 282 281 280 279 278 277 277 277 277 276 276 276 277 278 277 277 277 277 277 277 277 278 278 279 279 280 281 281
289 288 288 287 285 285 284 284 284 284 283 283 283 282 281 281 280 278 277 276 276 276 276 276 276 275 276 277 277 277 276 277 276 276 276 277 278 278 279 279 280 280 281
289 288 286 285 284 284 283 284 283 283 282 282 281 280 279 278 278 277 276 276 275 275 275 275 275 275 276 276 276 275 276 276 275 275 275 276 276 277 278 279 280 280 281
287 285 285 284 283 283 283 283 283 282 281 280 279 278 278 277 276 276 275 275 275 274 274 274 275 275 275 274 274 275 275 274 274 274 274 275 275 276 277 279 280 282 283
285 284 284 283 282 282 282 282 281 280 279 278 277 277 276 276 275 275 275 275 275 274 274 274 274 274 273 273 273 273 273 273 273 273 273 274 274 275 276 278 280 281 282
285 284 283 282 281 281 281 280 280 279 278 277 277 276 275 275 275 274 274 275 275 274 274 273 273 272 272 272 272 272 272 272 272 272 273 273 273 274 276 277 278 279 280
283 281 281 281 280 280 280 280 279 278 278 277 277 276 275 275 274 274 275 275 275 274 273 272 272 271 271 271 271 271 271 271 271 272 272 272 273 273 275 277 277 278 279
282 281 281 280 280 280 279 279 278 278 277 277 277 276 276 275 274 274 275 275 273 273 272 271 271 271 270 270 270 270 270 270 271 271 271 271 272 272 273 276 276 277 278
282 281 280 280 279 279 279 278 278 277 277 277 276 276 275 274 274 274 274 273 272 272 271 270 270 270 270 270 270 270 269 270 270 270 270 271 271 272 273 274 275 276 277
281 281 280 279 279 278 278 277 277 277 276 276 276 275 275 275 274 273 273 272 271 271 270 270 269 269 269 269 269 269 269 269 269 269 270 270 271 271 273 274 274 275 276
279 279 278 279 278 278 277 277 277 276 276 275 275 275 274 274 273 272 272 271 271 270 270 269 269 268 268 268 268 268 269 269 268 269 270 270 271 271 272 273 274 274 276
279 278 277 278 278 277 277 277 277 276 276 275 275 274 274 273 273 272 271 271 270 270 269 269 268 268 268 268 268 268 268 268 268 268 269 270 270 271 271 272 273 273 275
279 279 278 277 278 277 277 277 276 275 275 275 274 274 273 273 272 272 271 270 270 270 269 269 268 268 267 267 267 267 267 267 267 267 268 269 270 270 271 272 272 273 275
279 278 278 277 277 277 276 276 276 275 275 274 274 273 273 272 272 271 271 270 270 269 268 268 267 267 267 266 266 266 266 266 267 267 267 268 270 270 271 271 271 273 275
279 278 278 277 276 276 276 276 275 275 274 274 274 273 273 272 272 271 270 270 269 268 268 267 267 267 266 266 266 266 266 266 266 266 266 268 269 270 270 270 272 273 275
277 277 277 276 276 276 276 275 275 274 274 274 273 273 272 272 271 271 270 269 269 268 267 267 266 266 266 266 265 265 265 265 266 266 266 267 269 270 270 271 272 273 275
277 277 276 276 276 275 275 275 274 274 274 273 273 272 272 271 270 270 269 269 268 267 266 266 266 266 266 265 265 264 265 266 266 266 267 268 269 269 270 271 272 273 275
276 276 276 275 275 275 275 274 274 274 273 272 272 271 271 270 270 269 268 268 267 266 266 266 266 266 266 265 265 266 267 266 266 266 267 268 268 269 270 271 272 273 275
Wind_Speed
14 11 8 7 6 6 7 8 8 8 9 11 14 18 21 19 19 13 15 21 26 29 29 22 21 20 23 30 27 29 31 29 37 50 46 52 56 54 51 47 44 45 45
16 11 9 7 6 6 7 7 8 8 9 11 15 17 18 20 17 15 18 22 28 32 26 22 21 21 25 32 30 30 29 34 37 49 54 51 50 49 49 48 47 46 47
16 11 9 8 6 7 6 6 7 7 8 8 15 18 19 21 20 16 18 25 30 31 24 20 21 23 28 30 27 34 37 37 41 44 47 42 45 45 50 50 46 50 47
13 10 9 8 6 6 6 6 4 7 7 9 10 15 18 21 18 17 23 28 32 30 22 19 20 24 26 28 31 32 37 42 39 40 42 40 40 47 42 50 56 49 50
15 12 11 9 6 5 5 4 4 7 6 7 10 12 16 19 17 20 25 30 33 28 22 23 24 24 21 23 28 32 35 40 40 38 39 41 39 42 47 49 46 48 51
14 12 11 8 5 6 3 2 5 6 6 4 7 12 16 16 16 20 26 30 32 27 26 27 27 23 21 23 28 30 33 38 35 35 39 40 41 44 45 45 48 44 47
14 13 11 9 7 6 5 6 5 3 3 5 9 11 14 14 16 21 27 30 28 26 26 28 28 25 23 29 33 32 35 35 30 31 36 41 45 46 44 45 44 43 45
15 14 12 10 9 7 6 6 4 4 2 6 7 10 9 12 17 23 28 29 27 26 26 27 28 25 26 30 32 37 37 35 32 32 36 38 39 38 37 37 40 43 42
18 16 14 11 10 8 8 5 4 3 4 7 9 11 11 13 18 23 25 27 28 28 28 28 25 26 28 29 33 35 35 34 36 35 32 34 31 30 29 33 34 39 41
18 17 14 10 10 9 7 5 6 6 8 10 11 12 14 17 19 18 20 27 27 28 31 29 26 27 28 29 31 33 33 37 40 38 37 32 30 31 29 28 30 38 40
17 15 13 11 8 9 7 8 9 9 10 11 11 12 14 16 17 17 21 23 26 29 31 29 30 28 28 28 27 27 30 33 34 34 34 35 35 35 34 29 27 30 37
15 15 13 11 12 10 10 10 9 9 9 8 9 11 12 13 16 19 23 20 22 27 29 29 29 26 27 27 25 26 28 29 31 34 36 38 39 39 36 31 28 26 25
17 16 14 11 13 9 10 7 7 6 6 9 11 11 13 14 17 21 22 25 27 27 26 26 23 25 26 28 26 26 28 30 32 34 37 38 38 37 35 33 30 29 28
17 16 13 11 10 7 7 3 5 6 9 10 11 14 16 19 21 24 23 25 28 26 28 27 25 25 28 28 30 31 31 30 32 34 35 39 39 38 36 34 36 37 40
15 14 12 10 8 7 5 3 4 7 9 10 13 16 17 21 20 21 20 23 23 23 26 25 27 30 31 31 34 33 35 32 33 35 37 42 40 40 37 35 36 40 41
13 12 11 8 7 6 6 4 3 6 11 12 13 15 15 20 18 21 18 20 19 21 24 26 28 29 32 31 35 37 36 34 35 36 38 40 40 40 39 36 37 40 41
12 11 11 11 9 8 6 5 3 2 4 6 9 11 17 16 20 21 16 19 21 21 25 26 27 27 30 29 32 36 36 33 36 37 40 40 40 38 38 38 40 42 43
14 13 11 10 8 5 4 2 2 5 8 10 10 11 16 20 22 18 15 22 23 24 26 27 27 27 27 28 30 35 34 32 37 41 40 40 39 37 38 38 40 44 45
16 14 13 10 6 2 2 1 5 7 9 10 12 14 17 20 22 19 19 23 24 25 27 28 28 27 25 27 29 33 31 31 36 42 40 40 39 36 36 35 37 40 39
11 8 9 8 4 2 3 7 8 9 10 12 14 16 19 22 23 22 22 23 24 25 27 29 30 28 26 26 29 33 30 30 36 41 40 39 38 35 36 35 35 38 37
9 7 5 8 8 8 10 10 10 8 10 13 14 17 19 20 21 21 23 23 24 26 27 30 30 30 27 26 29 31 28 30 37 39 38 38 38 36 36 34 37 37 35
9 9 8 8 9 10 10 10 9 9 13 13 16 18 19 20 21 22 23 24 25 26 28 31 31 28 29 25 28 28 28 33 37 38 36 36 37 36 35 35 36 34 35
15 16 15 10 8 11 11 11 11 11 13 14 17 19 20 22 22 24 24 25 27 28 29 32 31 30 32 26 25 22 26 33 35 34 32 35 34 35 34 35 33 33 33
15 13 10 12 12 11 10 10 10 11 14 17 19 21 22 23 24 26 26 28 31 31 31 31 32 35 30 26 22 19 25 30 32 27 28 31 31 33 33 34 31 29 28
15 15 12 12 11 11 11 12 13 15 17 19 19 20 21 22 22 25 27 31 33 33 31 33 32 28 25 22 20 20 27 27 26 22 26 28 28 30 31 31 30 29 28
16 13 11 11 11 12 12 13 15 16 18 20 21 22 23 23 26 30 32 33 31 32 33 30 26 24 24 23 22 24 26 23 19 20 24 26 27 29 28 28 26 27 27
Wind_Direction
221 222 232 250 262 261 271 290 301 313 314 314 311 324 334 348 347 353 342 337 340 341 343 340 338 339 328 330 328 316 317 313 308 302 308 308 312 315 316 317 315 318 319
220 228 236 243 243 252 270 285 306 320 321 317 320 330 344 354 351 341 340 337 340 342 342 339 341 342 325 329 327 326 322 310 312 308 312 317 318 321 318 319 316 316 317
219 224 232 236 241 252 272 294 310 316 327 319 326 330 341 345 343 339 332 336 340 344 340 337 345 331 324 328 325 320 323 321 317 318 313 316 319 322 317 318 318 316 317
217 225 234 241 239 254 286 313 319 326 333 325 327 325 332 338 337 330 331 337 340 341 339 337 330 323 329 327 320 321 321 324 324 318 316 316 317 320 322 318 317 319 319
211 211 229 239 230 257 294 328 331 325 322 324 322 326 332 340 332 330 330 334 337 340 340 338 331 328 325 322 319 322 324 323 325 323 314 316 318 320 319 319 311 317 319
203 206 224 230 217 249 270 257 283 300 310 342 312 319 320 329 329 326 327 329 336 339 339 336 336 336 331 327 316 318 321 326 322 320 319 315 315 316 319 315 315 313 311
198 207 215 216 209 231 233 258 283 285 335 304 305 313 323 330 323 321 319 327 336 341 339 337 337 337 335 323 324 325 327 327 325 325 320 316 315 317 318 314 311 307 303
194 200 214 218 214 228 224 254 245 275 311 298 297 308 316 322 318 317 321 329 340 341 341 341 339 338 328 330 330 332 323 324 331 323 316 314 313 314 311 307 306 303 306
195 201 212 220 217 219 228 236 241 264 258 270 281 294 299 294 304 316 329 335 342 344 345 343 340 333 338 336 332 327 326 326 324 322 316 318 318 321 318 318 317 318 311
198 206 214 217 216 221 228 205 238 247 255 268 278 291 292 299 311 330 342 339 345 343 342 344 344 341 342 337 331 328 333 331 323 323 327 331 334 337 335 329 324 317 315
203 208 207 212 213 224 211 222 246 248 254 269 288 296 306 315 322 334 347 346 347 337 341 347 343 346 339 334 333 336 332 324 328 331 335 338 341 341 338 334 329 325 319
206 201 209 209 200 220 212 231 256 262 274 288 307 315 325 331 340 346 349 351 345 343 346 346 341 339 334 335 340 337 334 334 338 340 340 341 340 339 339 339 336 331 324
196 203 217 213 216 217 223 242 261 284 317 327 334 340 346 349 351 349 360 356 350 348 345 338 336 335 338 346 348 342 343 348 345 345 343 339 340 338 342 345 345 347 342
206 213 218 215 219 212 218 243 300 326 331 340 351 357 358 357 353 353 359 350 347 343 337 336 339 343 349 352 349 351 351 350 349 345 344 340 341 346 348 351 352 353 348
213 211 213 204 202 190 199 245 314 330 344 351 354 356 355 346 354 347 351 343 341 337 331 341 349 352 352 355 350 351 353 353 352 349 347 343 347 348 350 356 357 354 346
203 200 203 203 190 188 213 238 292 338 349 346 346 351 331 335 343 349 346 336 341 338 341 350 350 353 352 353 350 347 352 355 352 350 345 350 350 348 350 357 359 354 344
205 200 195 200 204 217 226 231 251 269 305 323 329 319 319 330 339 346 341 330 340 343 350 349 348 349 347 349 348 346 349 353 350 349 348 354 354 353 354 357 357 353 348
209 211 209 213 224 232 230 206 319 314 321 325 325 321 320 328 332 345 336 333 342 347 346 346 344 344 345 344 344 342 346 352 347 346 350 355 357 356 356 358 359 351 349
206 207 214 221 208 203 198 324 305 302 312 317 320 317 322 328 332 338 343 346 343 343 343 342 341 340 341 341 340 338 345 351 342 344 348 353 356 356 357 357 358 352 346
216 209 207 214 199 225 268 271 285 292 304 318 320 321 325 329 335 338 340 339 338 338 338 337 336 336 336 340 336 337 344 349 338 342 344 349 353 355 356 354 355 343 344
207 215 205 203 204 229 257 274 298 276 300 311 315 321 324 326 329 331 333 333 333 333 331 330 330 332 334 334 331 334 341 337 336 340 341 346 349 351 352 354 353 348 350
214 235 241 220 231 249 257 280 280 293 310 306 316 319 322 323 325 328 328 328 328 325 323 324 324 324 330 321 326 330 337 329 333 337 339 343 346 347 349 354 350 352 355
211 227 234 234 239 256 277 292 285 298 303 310 316 319 320 321 320 322 320 321 322 320 318 320 321 321 325 315 319 326 329 324 330 334 336 340 344 343 346 348 351 352 353
220 235 245 227 242 261 277 289 300 301 308 311 313 317 318 320 317 317 316 315 314 316 316 317 317 319 319 316 313 318 316 315 326 330 335 339 343 341 344 343 348 351 354
221 238 250 242 247 258 278 287 294 302 307 313 313 315 318 318 310 310 312 312 314 314 316 317 319 320 318 316 311 308 301 315 326 327 332 337 342 343 342 342 344 347 352
224 240 252 244 256 271 277 287 293 300 304 305 306 308 307 303 303 306 309 311 314 316 318 320 321 320 319 317 313 306 317 324 323 327 331 337 344 342 341 342 344 346 350